Location: Aalen
(48.8330°N, 10.1000°E)
Time: 21:55:21
(UTC+02:00)

PCSat - Visible Passes

Search period start: 28 September 2021 00:00
Search period end: 08 October 2021 00:00
Orbit: 785 x 793 km, 67.1° (Epoch: 28 September)

Date Brightness Start Highest point End Pass type
(mag) Time Alt. Az. Time Alt. Az. Time Alt. Az.
28 Sep 12.0 02:39:25 17° ENE 02:39:25 17° ENE 02:40:57 10° NE visible
28 Sep 10.0 04:20:08 54° NNW 04:20:08 54° NNW 04:24:52 10° NNE visible
28 Sep 11.4 06:00:51 12° WNW 06:04:02 18° NNW 06:07:43 10° NNE visible
29 Sep 12.4 02:09:21 10° ENE 02:09:21 10° ENE 02:09:29 10° ENE visible
29 Sep 10.5 03:50:04 45° NNE 03:50:04 45° NNE 03:53:50 10° NNE visible
29 Sep 11.2 05:30:46 18° WNW 05:32:41 21° NNW 05:36:46 10° NNE visible
30 Sep 11.2 03:19:58 31° NE 03:19:58 31° NE 03:22:46 10° NE visible
30 Sep 10.9 05:00:40 24° NW 05:01:22 25° NW 05:05:48 10° NNE visible
30 Sep 11.8 06:44:52 10° NNW 06:46:48 12° N 06:48:45 10° NNE visible
01 Oct 11.8 02:49:51 22° NE 02:49:51 22° NE 02:51:40 10° NE visible
01 Oct 10.8 04:30:33 29° NNW 04:30:33 29° NNW 04:34:51 10° NNE visible
01 Oct 11.7 06:13:01 10° NW 06:15:20 13° NNW 06:17:40 10° NNE visible
02 Oct 12.2 02:19:42 14° NE 02:19:42 14° NE 02:20:31 10° NE visible
02 Oct 11.0 04:00:24 30° N 04:00:24 30° N 04:03:52 10° NNE visible
02 Oct 11.7 05:41:08 10° NW 05:43:54 14° NNW 05:46:41 10° NNE visible
03 Oct 11.3 03:30:14 27° N 03:30:14 27° N 03:32:53 10° NNE visible
03 Oct 11.5 05:10:56 14° NW 05:12:29 16° NNW 05:15:41 10° NNE visible
04 Oct 11.8 03:00:03 21° NNE 03:00:03 21° NNE 03:01:52 10° NNE visible
04 Oct 11.5 04:40:46 18° NNW 04:41:06 18° NNW 04:44:44 10° NNE visible
04 Oct 11.9 06:25:20 10° NNW 06:26:50 11° N 06:28:20 10° NNE visible
05 Oct 12.2 02:29:52 16° NNE 02:29:52 16° NNE 02:30:51 10° NNE visible
05 Oct 11.5 04:10:34 20° NNW 04:10:34 20° NNW 04:13:46 10° NNE visible
05 Oct 11.9 05:53:44 10° NNW 05:55:21 11° N 05:56:57 10° NNE visible
06 Oct 12.5 01:59:40 11° NE 01:59:40 11° NE 01:59:47 10° NE visible
06 Oct 11.6 03:40:22 20° N 03:40:22 20° N 03:42:49 10° NNE visible
06 Oct 11.9 05:21:58 10° NNW 05:23:52 12° N 05:25:46 10° NNE visible
07 Oct 11.9 03:10:09 18° N 03:10:09 18° N 03:11:51 10° NNE visible
07 Oct 11.9 04:50:51 11° NNW 04:52:24 12° NNW 04:54:41 10° NNE visible
07 Oct 12.0 06:35:58 10° NNW 06:38:19 13° NNE 06:40:40 10° NE visible
